FW6151 Weather Reports


time (UTC)temp
C
wind
direction
speed
KPH
gust
KPH
rain 1hr
cm
rain 24hr
cm
rain mn
cm
humidity
%
barometer
mb
20260507164051 17 223 0.0 8.0 0.00 0.69 0.53 58 1017.0
20260507163551 17 335 1.6 8.0 0.00 0.69 0.53 58 1016.9
20260507163050 17 323 1.6 8.0 0.00 0.69 0.53 59 1016.8
20260507162551 16 227 1.6 6.4 0.00 0.69 0.53 59 1016.8
20260507162054 16 336 3.2 9.7 0.00 0.69 0.53 59 1016.9
20260507161553 16 319 4.8 9.7 0.00 0.69 0.53 61 1016.9
20260507161054 16 219 1.6 6.4 0.00 0.69 0.53 61 1016.8
20260507160550 16 211 3.2 9.7 0.00 0.69 0.53 61 1017.0
20260507160111 16 228 0.0 9.7 0.00 0.71 0.53 61 1016.9
20260507155553 16 24 0.0 8.0 0.00 0.71 0.53 62 1016.9
20260507155052 16 327 3.2 8.0 0.00 0.71 0.53 61 1016.9
20260507154549 17 263 3.2 9.7 0.00 0.71 0.53 60 1016.9
20260507154049 17 190 3.2 12.9 0.00 0.71 0.53 60 1016.9
20260507153553 17 323 3.2 12.9 0.00 0.71 0.53 59 1016.9
20260507153049 17 192 0.0 8.0 0.00 0.71 0.53 61 1016.9
20260507152557 17 192 1.6 8.0 0.00 0.71 0.53 61 1016.8
20260507152052 17 338 1.6 9.7 0.00 0.71 0.53 61 1016.8
20260507151556 17 340 1.6 9.7 0.00 0.71 0.53 60 1016.8
20260507151049 17 316 1.6 14.5 0.00 0.71 0.53 61 1016.9
20260507150548 17 322 1.6 14.5 0.00 0.71 0.53 60 1016.9
20260507150048 17 190 0.0 6.4 0.00 0.76 0.53 61 1016.9
20260507145548 17 316 1.6 11.3 0.00 0.76 0.53 61 1016.9
20260507145050 17 223 3.2 11.3 0.00 0.76 0.53 60 1016.9
20260507144548 17 291 3.2 8.0 0.00 0.76 0.53 59 1017.0
20260507144048 17 329 1.6 9.7 0.00 0.76 0.53 59 1017.0
20260507143547 17 200 3.2 12.9 0.00 0.76 0.53 59 1017.1
20260507143049 17 343 3.2 8.0 0.00 0.76 0.53 60 1017.0
20260507142551 17 355 1.6 8.0 0.00 0.76 0.53 61 1017.0
20260507142047 17 237 1.6 8.0 0.00 0.76 0.53 61 1017.0
20260507141548 17 228 1.6 8.0 0.00 0.76 0.53 58 1017.0
20260507141047 17 348 3.2 12.9 0.00 0.76 0.53 58 1017.0
20260507140548 17 230 1.6 14.5 0.00 0.76 0.53 60 1017.0
20260507140053 17 347 3.2 14.5 0.00 0.89 0.53 59 1017.0
20260507135546 18 214 1.6 14.5 0.00 0.89 0.53 57 1017.0
20260507135046 18 338 4.8 9.7 0.00 0.89 0.53 55 1016.9
20260507134546 18 289 1.6 9.7 0.00 0.89 0.53 52 1017.0
20260507134045 18 173 0.0 8.0 0.00 0.89 0.53 49 1017.0
20260507133545 18 260 1.6 9.7 0.00 0.89 0.53 49 1017.1
20260507133045 18 165 0.0 9.7 0.00 0.89 0.53 51 1017.1
20260507132544 18 340 1.6 12.9 0.00 0.89 0.53 52 1017.1
20260507132044 18 338 3.2 12.9 0.00 0.89 0.53 52 1017.1
20260507131609 18 115 3.2 8.0 0.00 0.89 0.53 53 1017.1
20260507131042 18 328 1.6 8.0 0.00 0.89 0.53 57 1017.2
20260507130541 18 181 0.0 4.8 0.00 0.89 0.53 58 1017.2
20260507130041 18 181 0.0 8.0 0.00 1.09 0.53 56 1017.2
20260507125540 18 196 0.0 12.9 0.00 1.09 0.53 61 1017.3
20260507125040 17 265 3.2 12.9 0.00 1.09 0.53 57 1017.3
20260507124549 17 130 1.6 6.4 0.00 1.09 0.53 57 1017.3
20260507124039 17 30 0.0 4.8 0.00 1.09 0.53 58 1017.3
20260507123539 17 30 1.6 4.8 0.00 1.09 0.53 57 1017.4
20260507123043 17 188 0.0 4.8 0.00 1.09 0.53 58 1017.5
20260507122538 17 188 0.0 4.8 0.00 1.09 0.53 61 1017.4
20260507122040 16 188 0.0 4.8 0.00 1.09 0.53 65 1017.5
20260507121536 16 188 0.0 6.4 0.00 1.09 0.53 62 1017.5
20260507121035 16 188 0.0 6.4 0.00 1.09 0.53 63 1017.6
20260507120535 16 188 0.0 11.3 0.00 1.09 0.53 68 1017.4
20260507120039 16 188 0.0 11.3 0.00 1.60 0.53 65 1017.6
20260507115534 16 175 0.0 4.8 0.00 1.60 0.53 66 1017.6
20260507115032 16 175 1.6 6.4 0.00 1.60 0.53 66 1017.6
20260507114533 16 175 1.6 6.4 0.00 1.60 0.53 65 1017.6
20260507114037 16 175 0.0 4.8 0.00 1.60 0.53 68 1017.6
20260507113531 16 175 0.0 4.8 0.00 1.60 0.53 68 1017.6
20260507113059 15 175 1.6 4.8 0.00 1.60 0.53 67 1017.5
20260507112532 15 175 0.0 4.8 0.00 1.60 0.53 67 1017.6
20260507112029 15 175 0.0 8.0 0.00 1.60 0.53 67 1017.7
20260507111532 15 175 1.6 8.0 0.00 1.60 0.53 68 1017.6
20260507111027 15 175 0.0 6.4 0.00 1.60 0.53 69 1017.6
20260507110627 15 175 1.6 6.4 0.00 1.60 0.53 69 1017.7
20260507110029 15 173 1.6 6.4 0.00 1.68 0.53 69 1017.7
20260507105526 15 167 0.0 3.2 0.00 1.68 0.53 69 1017.6
20260507105026 15 167 0.0 4.8 0.00 1.68 0.53 71 1017.6
20260507104526 15 142 0.0 4.8 0.00 1.68 0.53 70 1017.7
20260507104025 15 140 0.0 4.8 0.00 1.68 0.53 70 1017.8
20260507103525 15 128 0.0 3.2 0.00 1.68 0.53 72 1017.8
20260507103026 15 69 0.0 8.0 0.00 1.68 0.53 73 1017.8
20260507102528 15 355 1.6 8.0 0.00 1.68 0.53 68 1017.9
20260507102026 15 355 1.6 9.7 0.00 1.68 0.53 68 1017.9
20260507101527 15 317 3.2 8.0 0.00 1.68 0.53 70 1017.8
20260507101024 15 179 1.6 8.0 0.00 1.68 0.53 71 1017.8
20260507100523 15 179 1.6 6.4 0.00 1.68 0.53 71 1017.8
20260507100032 15 179 1.6 4.8 0.00 1.68 0.53 74 1017.8
20260507095521 14 273 0.0 4.8 0.00 1.68 0.53 76 1017.9
20260507095120 13 308 0.0 6.4 0.00 1.68 0.53 76 1017.9
20260507094518 13 299 1.6 4.8 0.00 1.68 0.53 76 1018.0
20260507094018 13 243 0.0 11.3 0.00 1.68 0.53 77 1018.1
20260507093518 13 249 1.6 11.3 0.00 1.68 0.53 75 1018.1
20260507093018 13 169 0.0 8.0 0.00 1.68 0.53 76 1018.0
20260507092520 13 169 0.0 4.8 0.00 1.68 0.53 77 1018.1
20260507092017 13 169 0.0 4.8 0.00 1.68 0.53 77 1018.0
20260507091520 13 169 0.0 4.8 0.00 1.68 0.53 77 1018.1
20260507091017 13 9 0.0 11.3 0.00 1.68 0.53 78 1018.0
20260507090516 13 171 3.2 11.3 0.00 1.68 0.53 78 1017.8
20260507090014 13 176 0.0 4.8 0.00 1.68 0.53 79 1017.9
20260507085514 13 176 0.0 4.8 0.00 1.68 0.53 80 1017.8
20260507085013 13 176 1.6 4.8 0.00 1.68 0.53 82 1017.7
20260507084528 13 190 1.6 11.3 0.00 1.68 0.53 84 1017.8
20260507084010 12 191 1.6 6.4 0.03 1.68 0.53 87 1017.6
20260507083509 12 190 1.6 6.4 0.03 1.68 0.53 89 1017.7
20260507083017 11 191 0.0 8.0 0.03 1.68 0.53 91 1017.8
20260507082506 11 191 0.0 8.0 0.03 1.68 0.53 91 1017.7
20260507082005 11 190 0.0 4.8 0.03 1.68 0.53 92 1017.8
20260507081504 11 190 0.0 4.8 0.03 1.68 0.53 92 1017.7
20260507081007 11 190 0.0 6.4 0.03 1.68 0.53 92 1017.8
20260507080505 11 191 1.6 4.8 0.03 1.68 0.53 92 1017.8
20260507080003 11 195 0.0 4.8 0.03 1.68 0.53 93 1017.8
20260507075502 11 195 0.0 4.8 0.03 1.68 0.53 93 1017.8
20260507075100 11 103 0.0 6.4 0.03 1.68 0.53 93 1017.8
20260507074559 11 163 0.0 6.4 0.03 1.68 0.53 93 1017.6
20260507074057 10 252 1.6 4.8 0.00 1.65 0.51 93 1017.7
20260507073556 10 183 0.0 4.8 0.00 1.65 0.51 94 1017.6
20260507073058 10 183 0.0 3.2 0.00 1.65 0.51 94 1017.6
20260507072554 10 183 0.0 3.2 0.00 1.65 0.51 93 1017.6
20260507072056 10 183 0.0 3.2 0.00 1.65 0.51 93 1017.6
20260507071551 10 183 0.0 3.2 0.03 1.65 0.51 93 1017.7
20260507071050 10 183 0.0 3.2 0.05 1.65 0.51 93 1017.5
20260507070550 10 183 0.0 1.6 0.05 1.65 0.51 93 1017.5
20260507065548 10 183 0.0 3.2 0.10 1.65 0.51 93 1017.4
20260507065048 10 183 0.0 3.2 0.10 1.65 0.51 93 1017.4
20260507064548 10 183 0.0 3.2 0.10 1.65 0.51 93 1017.4
20260507064047 10 183 0.0 3.2 0.10 1.65 0.51 93 1017.3
20260507063546 10 183 0.0 3.2 0.10 1.65 0.51 93 1017.3
20260507063052 10 183 0.0 1.6 0.13 1.65 0.51 93 1017.2
20260507062544 10 183 0.0 1.6 0.13 1.65 0.51 93 1017.3
20260507062047 10 183 0.0 1.6 0.13 1.65 0.51 93 1017.3
20260507061544 10 183 0.0 1.6 0.10 1.63 0.48 93 1017.4
20260507061043 10 183 0.0 1.6 0.08 1.60 0.46 93 1017.3
20260507060542 10 183 0.0 3.2 0.08 1.60 0.46 93 1017.2
20260507060043 9 183 0.0 6.4 0.08 1.57 0.43 93 1017.2
20260507055540 9 269 0.0 6.4 0.05 1.55 0.41 93 1017.1
20260507055039 9 196 0.0 3.2 0.05 1.55 0.41 93 1017.1
20260507054541 9 196 0.0 4.8 0.05 1.55 0.41 93 1017.0
20260507054038 9 196 0.0 3.2 0.05 1.55 0.41 93 1017.0
20260507053537 9 196 0.0 4.8 0.03 1.52 0.38 93 1017.0
20260507053038 9 196 0.0 4.8 0.03 1.52 0.38 93 1016.8
20260507052535 9 196 0.0 4.8 0.03 1.52 0.38 93 1016.8
20260507052035 9 196 0.0 3.2 0.03 1.52 0.38 93 1016.7
20260507051535 9 196 0.0 3.2 0.03 1.52 0.38 93 1016.7
20260507051034 9 196 0.0 3.2 0.03 1.52 0.38 93 1016.7
20260507050533 9 196 0.0 8.0 0.03 1.52 0.38 93 1016.6
20260507050058 9 196 0.0 8.0 0.00 1.50 0.36 93 1016.6
20260507045532 9 194 0.0 0.0 0.00 1.50 0.36 93 1016.5
20260507045032 9 194 0.0 0.0 0.00 1.50 0.36 93 1016.4
20260507044545 9 194 0.0 0.0 0.00 1.50 0.36 93 1016.3
20260507044030 9 194 0.0 3.2 0.00 1.50 0.36 93 1016.3
20260507043530 9 194 0.0 4.8 0.00 1.50 0.36 93 1016.2
20260507043030 9 194 0.0 4.8 0.00 1.50 0.36 93 1016.2
20260507042530 9 194 0.0 1.6 0.00 1.50 0.36 93 1016.2
20260507042030 9 194 0.0 3.2 0.00 1.50 0.36 93 1016.1
20260507041529 9 194 0.0 3.2 0.03 1.50 0.36 93 1016.1
20260507041032 9 194 0.0 3.2 0.03 1.50 0.36 93 1016.1
20260507040530 9 194 0.0 1.6 0.03 1.50 0.36 93 1016.1
20260507040028 9 194 0.0 3.2 0.03 1.50 0.36 93 1016.0
20260507035528 9 194 0.0 1.6 0.03 1.50 0.36 93 1016.1
20260507035031 9 194 0.0 1.6 0.03 1.50 0.36 93 1016.0
20260507034535 9 194 0.0 1.6 0.03 1.50 0.36 93 1016.0
20260507034026 9 194 0.0 3.2 0.03 1.50 0.36 93 1016.0
20260507033526 9 194 0.0 4.8 0.03 1.50 0.36 93 1015.9
20260507033033 9 252 0.0 4.8 0.03 1.50 0.36 93 1015.9
20260507032526 9 252 0.0 4.8 0.03 1.50 0.36 93 1015.8
20260507032026 9 192 0.0 3.2 0.05 1.50 0.36 93 1015.8
20260507031531 9 252 0.0 4.8 0.03 1.45 0.33 93 1015.8
20260507031029 9 198 0.0 6.4 0.03 1.45 0.33 93 1015.8
20260507030526 9 243 0.0 6.4 0.03 1.45 0.33 93 1015.8
20260507030033 9 192 0.0 9.7 0.05 1.45 0.33 93 1015.8
20260507025524 9 95 0.0 9.7 0.05 1.45 0.33 93 1015.9
20260507025024 9 125 0.0 6.4 0.08 1.45 0.33 93 1015.8
20260507024527 9 188 0.0 4.8 0.08 1.45 0.33 93 1015.8
20260507024023 9 188 0.0 6.4 0.10 1.45 0.33 93 1015.7
20260507023522 9 223 0.0 6.4 0.10 1.45 0.33 93 1015.7
20260507023022 9 167 0.0 1.6 0.13 1.45 0.33 93 1015.8
20260507022522 9 153 0.0 3.2 0.13 1.45 0.33 93 1015.6
20260507022023 9 153 0.0 3.2 0.10 1.42 0.30 93 1015.6
20260507021538 9 150 0.0 3.2 0.13 1.42 0.30 93 1015.6
20260507021021 9 123 0.0 8.0 0.13 1.42 0.30 93 1015.6
20260507020521 9 122 0.0 8.0 0.13 1.42 0.28 93 1015.6
20260507020023 9 68 0.0 3.2 0.13 1.42 0.28 93 1015.6
20260507015519 9 68 0.0 3.2 0.13 1.40 0.25 93 1015.5
20260507015019 9 68 0.0 3.2 0.15 1.40 0.25 93 1015.4
20260507014522 9 68 0.0 0.0 0.15 1.40 0.25 93 1015.4
20260507014022 9 68 0.0 0.0 0.13 1.37 0.23 93 1015.4
20260507013518 9 68 0.0 0.0 0.15 1.37 0.23 93 1015.3
20260507013018 9 68 0.0 1.6 0.13 1.35 0.20 92 1015.4
20260507012519 9 68 0.0 1.6 0.13 1.35 0.20 92 1015.3
20260507012017 9 68 0.0 0.0 0.13 1.32 0.18 92 1015.3
20260507011524 9 68 0.0 1.6 0.13 1.32 0.18 92 1015.3
20260507011016 9 68 0.0 1.6 0.13 1.32 0.18 92 1015.2
20260507010518 9 68 0.0 1.6 0.10 1.30 0.15 92 1015.2
20260507010028 9 68 0.0 0.0 0.10 1.30 0.15 92 1015.2
20260507005514 9 68 0.0 1.6 0.08 1.27 0.13 92 1015.2
20260507005021 9 68 0.0 1.6 0.05 1.24 0.10 92 1015.2
20260507004519 9 68 0.0 0.0 0.05 1.24 0.10 92 1015.2
20260507004014 9 68 0.0 0.0 0.05 1.24 0.10 92 1015.2
20260507003514 9 68 0.0 0.0 0.03 1.22 0.08 92 1015.2
20260507003013 9 68 0.0 1.6 0.03 1.22 0.08 92 1015.1
20260507002513 9 68 0.0 1.6 0.03 1.22 0.08 92 1015.0
20260507002013 9 68 0.0 0.0 0.00 1.19 0.05 92 1015.0
20260507001513 9 68 0.0 0.0 0.03 1.19 0.05 92 1015.0
20260507001012 9 68 0.0 0.0 0.03 1.19 0.05 92 1015.0
20260507000522 9 68 0.0 0.0 0.05 1.19 0.05 92 1015.0
20260507000012 9 68 0.0 1.6 0.05 1.19 0.05 92 1014.9
20260506235512 9 68 0.0 1.6 0.05 1.19 0.05 92 1014.9
20260506235016 9 68 0.0 0.0 0.05 1.19 0.05 92 1015.0
20260506234511 10 68 0.0 0.0 0.05 1.19 0.05 92 1015.0
20260506234011 10 68 0.0 0.0 0.05 1.19 0.05 92 1015.0
20260506233511 10 68 0.0 0.0 0.05 1.19 0.05 92 1015.0
20260506233011 10 68 0.0 0.0 0.05 1.19 0.05 92 1014.9
20260506232513 10 68 0.0 0.0 0.05 1.19 0.05 92 1014.9
20260506232010 10 68 0.0 1.6 0.05 1.19 0.05 92 1014.9
20260506231509 10 68 0.0 1.6 0.03 1.17 0.03 92 1014.9
20260506231009 10 68 0.0 3.2 0.03 1.17 0.03 92 1015.0
20260506230509 10 68 0.0 3.2 0.00 1.14 0.00 92 1015.0
20260506230010 10 68 0.0 0.0 0.00 1.17 0.00 92 1014.9
20260506225513 10 68 0.0 3.2 0.00 1.17 0.00 92 1014.9
20260506225007 10 68 0.0 3.2 0.00 1.17 0.00 92 1014.9
20260506224507 10 68 0.0 0.0 0.00 1.17 0.00 92 1014.9
20260506224007 10 68 0.0 0.0 0.00 1.17 0.00 92 1014.9
20260506223509 10 68 0.0 0.0 0.00 1.17 0.00 92 1014.8
20260506223012 10 68 0.0 0.0 0.00 1.17 0.00 92 1014.8
20260506222506 10 68 0.0 1.6 0.00 1.17 0.00 92 1014.8
20260506222008 10 68 0.0 1.6 0.00 1.17 0.00 92 1014.9
20260506221505 10 68 0.0 1.6 0.00 1.17 0.00 92 1014.8
20260506221003 10 68 0.0 0.0 0.00 1.17 0.00 92 1014.8
20260506220502 10 68 0.0 0.0 0.00 1.17 0.00 92 1014.8
20260506215603 10 68 0.0 0.0 0.00 1.17 1.17 91 1014.8
20260506215103 10 68 0.0 1.6 0.00 1.17 1.17 91 1014.9
20260506214600 10 68 0.0 1.6 0.00 1.17 1.17 91 1014.8
20260506214100 10 68 0.0 0.0 0.00 1.17 1.17 91 1014.8
20260506213600 10 68 0.0 0.0 0.00 1.17 1.17 91 1014.8
20260506213059 10 68 0.0 1.6 0.00 1.17 1.17 91 1014.8
20260506212559 10 68 0.0 3.2 0.00 1.17 1.17 91 1014.8
20260506212059 10 68 0.0 3.2 0.00 1.17 1.17 91 1014.8
20260506211558 10 68 0.0 0.0 0.00 1.17 1.17 91 1014.6
20260506211058 10 68 0.0 0.0 0.00 1.17 1.17 91 1014.6
20260506210558 10 68 0.0 0.0 0.00 1.17 1.17 91 1014.6
20260506210058 10 68 0.0 0.0 0.00 1.17 1.17 91 1014.5
20260506205559 10 68 0.0 1.6 0.00 1.17 1.17 91 1014.6
20260506205056 10 68 0.0 0.0 0.00 1.17 1.17 91 1014.5
20260506204601 10 68 0.0 1.6 0.00 1.17 1.17 91 1014.5
20260506204055 10 68 0.0 4.8 0.00 1.17 1.17 91 1014.4
20260506203556 10 68 1.6 4.8 0.00 1.17 1.17 91 1014.4
20260506203055 10 290 0.0 6.4 0.00 1.17 1.17 91 1014.3
20260506202558 10 326 1.6 6.4 0.00 1.17 1.17 91 1014.4
20260506202057 10 191 0.0 4.8 0.00 1.17 1.17 91 1014.3
20260506201557 10 191 0.0 4.8 0.00 1.17 1.17 91 1014.3
20260506201054 10 191 0.0 4.8 0.00 1.17 1.17 92 1014.3
20260506200556 10 191 0.0 4.8 0.00 1.17 1.17 92 1014.1
20260506200108 10 191 0.0 0.0 0.00 1.17 1.17 92 1014.1
20260506195555 10 191 0.0 0.0 0.00 1.17 1.17 92 1014.1
20260506195053 10 191 0.0 0.0 0.00 1.17 1.17 92 1013.9
20260506194606 10 191 0.0 0.0 0.00 1.17 1.17 91 1013.9
20260506194051 10 191 0.0 0.0 0.00 1.17 1.17 91 1013.9
20260506193550 10 191 0.0 1.6 0.00 1.17 1.17 91 1013.7
20260506193050 10 191 0.0 1.6 0.00 1.17 1.17 91 1013.6
20260506192549 10 191 0.0 0.0 0.00 1.17 1.17 91 1013.5
20260506192053 10 191 0.0 0.0 0.00 1.17 1.17 91 1013.6
20260506191549 10 191 0.0 0.0 0.00 1.17 1.17 91 1013.6
20260506191051 10 191 0.0 0.0 0.00 1.17 1.17 91 1013.5
20260506190550 11 191 0.0 0.0 0.00 1.17 1.17 91 1013.4
20260506190048 11 191 0.0 0.0 0.03 1.17 1.17 91 1013.4
20260506185547 11 191 0.0 0.0 0.03 1.17 1.17 91 1013.3
20260506185050 11 191 0.0 0.0 0.03 1.17 1.17 91 1013.2
20260506184547 11 191 0.0 3.2 0.03 1.17 1.17 91 1013.2
20260506184046 11 191 0.0 3.2 0.05 1.17 1.17 91 1013.2
20260506183546 11 191 0.0 0.0 0.05 1.17 1.17 91 1013.2
20260506183059 11 191 0.0 0.0 0.05 1.17 1.17 90 1013.1
20260506182545 11 191 0.0 0.0 0.05 1.17 1.17 91 1013.0
20260506182045 11 191 0.0 0.0 0.05 1.17 1.17 90 1013.0
20260506181553 11 191 0.0 0.0 0.08 1.17 1.17 90 1013.0
20260506181045 11 191 0.0 0.0 0.08 1.17 1.17 90 1013.0
20260506180547 11 191 0.0 0.0 0.08 1.17 1.17 90 1013.0
20260506180044 11 191 0.0 0.0 0.05 1.35 1.14 90 1013.0
20260506175546 11 191 0.0 0.0 0.08 1.35 1.14 90 1013.0
20260506175044 11 191 0.0 0.0 0.08 1.35 1.14 90 1012.9
20260506174543 11 191 0.0 0.0 0.08 1.35 1.14 90 1012.8
20260506174043 11 191 0.0 0.0 0.05 1.32 1.12 90 1012.9
20260506173542 11 191 0.0 0.0 0.05 1.32 1.12 90 1012.8
20260506173052 11 191 0.0 0.0 0.08 1.32 1.12 90 1012.8
20260506172543 11 191 0.0 0.0 0.08 1.32 1.12 90 1012.7
20260506172042 11 191 0.0 0.0 0.08 1.32 1.12 90 1012.6
20260506171545 11 191 0.0 0.0 0.05 1.30 1.09 91 1012.6
20260506171040 11 191 0.0 0.0 0.08 1.30 1.09 91 1012.6
20260506170540 11 191 0.0 0.0 0.08 1.30 1.09 91 1012.5
20260506170044 11 191 0.0 0.0 0.08 1.30 1.09 91 1012.5
20260506165539 11 191 0.0 0.0 0.05 1.27 1.07 90 1012.5
20260506165038 11 191 0.0 0.0 0.05 1.27 1.07 90 1012.5
20260506164546 11 191 0.0 0.0 0.08 1.27 1.07 90 1012.4